Overview Statistics Trail Chart Weather Telemetry Raw packets
 

This is the latest recevied weather packets stored in our database for station/object KD7CTY. If no packets are shown the sender has not sent any weather packets the latest 10 day(s).

<< 109 110 111 112 113 114 >>
Time Temp. Humidity Pressure Rain* Wind** Luminosity Snow
1787774725 21.67° C 68% 1016 hPa 0 mm - 772 W/m² -
1787774420 20.56° C 68% 1016.2 hPa 0 mm - 783 W/m² -
1787774114 21.11° C 69% 1016.2 hPa 0 mm - 796 W/m² -
1787773812 20° C 72% 1016 hPa 0 mm - 800 W/m² -
1787773511 20° C 71% 1016.1 hPa 0 mm - 812 W/m² -
1787773208 20.56° C 69% 1016 hPa 0 mm - 551 W/m² -
1787772903 20.56° C 71% 1016.2 hPa 0 mm - 844 W/m² -
1787772598 20.56° C 70% 1016.3 hPa 0 mm - 842 W/m² -
1787772297 20.56° C 71% 1016.2 hPa 0 mm - 855 W/m² -
1787771996 19.44° C 74% 1016.2 hPa 0 mm - 867 W/m² -
1787771691 20° C 74% 1016.3 hPa 0 mm - 620 W/m² -
1787771390 18.89° C 76% 1016.2 hPa 0 mm - 468 W/m² -
1787771084 19.44° C 75% 1016.7 hPa 0 mm - 365 W/m² -
1787770779 18.89° C 77% 1016.4 hPa 0 mm - 530 W/m² -
1787770478 18.33° C 79% 1016.5 hPa 0 mm - 618 W/m² -
1787770178 18.33° C 80% 1016.4 hPa 0 mm - 402 W/m² -
1787769877 17.78° C 82% 1016.5 hPa 0 mm - 426 W/m² -
1787769577 18.33° C 81% 1017 hPa 0 mm - 300 W/m² -
1787769275 17.78° C 81% 1016.5 hPa 0 mm - 306 W/m² -
1787768970 17.78° C 82% 1016.6 hPa 0 mm - 285 W/m² -
1787768666 17.78° C 82% 1016.5 hPa 0 mm - 301 W/m² -
1787768362 17.78° C 82% 1016.6 hPa 0 mm - 331 W/m² -
1787768058 17.78° C 83% 1016.7 hPa 0 mm - 288 W/m² -
1787767758 16.67° C 86% 1016.7 hPa 0 mm - 311 W/m² -
1787767453 16.67° C 87% 1016.6 hPa 0 mm - 184 W/m² -

* Rain latest hour (hover to see other rain measurements)
** Current wind speed in m/s (hover to see current wind gust speed)